Regional Weather Roundup
Issued by NWS Kansas City/Pleasant Hill, MO

Home | Current Version | Previous Version | Graphics & Text | Print | Product List | Glossary Off
Versions: 1 2 3 4 5 6 7 8 9 10 11 12 13 14 15 16 17 18 19 20 21 22 23 24 25 26 27 28 29 30 31 32 33 34 35 36 37 38 39 40 41 42 43 44 45 46 47 48 49 50

000
ASUS43 KEAX 281411
RWREAX

WEATHER ROUNDUP FOR EASTERN KANSAS AND NORTHWEST MISSOURI
NATIONAL WEATHER SERVICE KANSAS CITY/PLEASANT HILL MO
900 AM CDT THU MAY 28 2015

KSZ040-057-103>105-MOZ028-029-037-043-281500-
...KANSAS CITY METROPOLITAN AREA...

CITY           SKY/WX    TMP DP  RH WIND       PRES   REMARKS
K.C. INTL      CLOUDY    64  63  96 NE12      30.08F
K.C. DOWNTOWN  CLOUDY    66  61  84 E13       30.07F
LEES SUMMIT    PTSUNNY   66  63  90 NE10      30.09F
OLATHE - IXD   CLOUDY    66  63  90 NE8       30.08F
OLATHE - OJC   CLOUDY    66  63  90 NE10      30.07F
LAWRENCE       LGT RAIN  66  63  90 E8        30.07R

$$

MOZ001>008-011>017-020>025-030>033-038>040-044>046-053-054-281500-
...NORTHERN AND CENTRAL MISSOURI...

CITY           SKY/WX    TMP DP  RH WIND       PRES   REMARKS
ST. JOSEPH     LGT RAIN  64  62  93 E9        30.08F
MOSBY          CLOUDY    63  61  94 E5        30.10F THUNDER
WARRENSBURG    PTSUNNY   68  63  83 CALM      30.11R
WHITEMAN AFB   PTSUNNY   67  62  84 S6        30.10S
CLINTON        MOSUNNY   73  66  78 S3        30.11R
SEDALIA        CLOUDY    68  62  81 SE7       30.12F
WARSAW         NOT AVBL
CHILLICOTHE      N/A     68  60  75 VRB3      30.13S
KIRKSVILLE     CLOUDY    69  62  78 SE9       30.15F

$$

MOZ041-047>049-056>058-063>065-088>090-097-281500-
...EASTERN AND SOUTHERN MISSOURI...

CITY           SKY/WX    TMP DP  RH WIND       PRES   REMARKS
ST. LOUIS INTL PTSUNNY   74  60  61 E10       30.16F
SPIRIT OF STL  MOSUNNY   73  66  78 SE6       30.14F
COLUMBIA       CLOUDY    71  61  70 SE10      30.13F
JEFFERSON CITY CLOUDY    71  62  73 E7        30.12F
ROLLA          PTSUNNY   69  66  90 E8        30.13S
OSAGE BEACH    CLOUDY    70  64  83 S5        30.12S
SPRINGFIELD    CLOUDY    71  67  87 S9        30.11S
BRANSON        CLOUDY    68  68 100 CALM      30.14S FOG
JOPLIN         PTSUNNY   73  66  78 CALM      30.09F
WEST PLAINS    CLOUDY    68  67  96 SE6       30.16S FOG

$$

IAZ060-094-KSZ022-034>040-054-083-096-NEZ052-066-093-281500-
...KANSAS...SOUTHEAST NEBRASKA AND IOWA...

CITY           SKY/WX    TMP DP  RH WIND       PRES   REMARKS
TOPEKA         CLOUDY    67  65  93 NE3       30.05F
MANHATTAN      CLOUDY    66  63  90 E3        30.03F
EMPORIA        LGT RAIN  66  63  90 S3        30.05F
CHANUTE        CLOUDY    68  66  93 VRB3      30.04F
WICHITA        CLOUDY    68  63  84 SE9       30.01F
OMAHA          CLOUDY    68  57  68 S10       30.06F
LINCOLN        CLOUDY    65  62  90 S10       30.05F
LAMONI         CLOUDY    70  59  68 SE8       30.12S
DES MOINES     PTSUNNY   70  58  65 S9        30.12F

$$




USA.gov is the U.S. government's official web portal to all federal, state and local government web resources and services.